Date_and_time,latitude,longitude,wind_speed,RelWindDirFrom,WindDirFrom,air_pressure,air_temperature,relative_humidity,Temp,platform_speed_wrt_ground,air_pressure_at_mean_sea_level,platform_orientation
2018-06-13 23:40,50.9117316666667,-96.98253,4.4,6.4,172,981.65,23.8,29,19.05,0.0,1007.02,90.0
2018-06-13 23:50,50.91173,-96.9825283333333,8.3,10.4,137,981.62,21.9,42,19.01,0.0,1007.07,90.0
2018-06-14 00:00,50.9117333333333,-96.98252,8.4,9.4,145,981.58,21.1,48,18.96,0.0,1007.09,170.2
2018-06-14 00:10,50.9117283333333,-96.9825266666667,9.4,10.5,138,981.48,19.8,56,18.91,0.0,1007.04,170.2
2018-06-14 00:20,50.9117266666667,-96.9825233333333,9.2,10.1,140,981.44,19.6,58,18.86,0.0,1007.01,170.2
2018-06-14 00:30,50.9117283333333,-96.982525,7.8,9.2,140,981.41,19.1,66,18.82,0.0,1007.00,170.2
2018-06-14 00:40,50.91173,-96.982525,9.1,10.9,152,981.38,19.2,62,18.78,0.0,1006.96,170.2
2018-06-14 00:50,50.9117433333333,-96.98251,7.8,9.7,153,981.32,19.1,65,18.74,0.0,1006.90,170.2
2018-06-14 01:00,50.9117416666667,-96.9825133333333,8.3,9.9,150,981.31,19.0,66,18.71,0.0,1006.91,90.0
2018-06-14 01:10,50.91174,-96.9825183333333,6.0,7.9,154,981.29,19.0,66,18.67,0.0,1006.88,90.0
2018-06-14 01:20,50.9117383333333,-96.9825016666667,6.4,10.0,158,981.26,19.1,63,18.64,0.0,1006.86,90.0
2018-06-14 01:30,50.9117433333333,-96.9825066666667,9.8,13.0,169,981.26,20.7,46,18.63,0.0,1006.84,90.0
2018-06-14 01:40,50.91174,-96.9825183333333,12.8,16.3,179,981.31,22.0,37,18.69,0.0,1006.91,90.0
2018-06-14 01:50,50.9117366666667,-96.9825183333333,12.6,15.3,180,981.38,22.3,36,18.82,0.0,1007.00,90.0
2018-06-14 02:00,50.9117366666667,-96.98252,11.5,13.2,177,981.44,22.0,38,18.92,0.0,1007.13,47.9
2018-06-14 02:10,50.9117366666667,-96.9825216666667,10.3,12.4,176,981.47,21.6,41,18.97,0.0,1007.19,47.9
2018-06-14 02:20,50.9117366666667,-96.9825216666667,8.7,11.9,182,981.54,21.2,43,18.97,0.0,1007.30,47.9
2018-06-14 02:30,50.9116966666667,-96.9825,7.6,11.0,185,981.61,21.3,42,18.92,0.0,1007.37,47.9
2018-06-14 02:40,50.9117466666667,-96.9825233333333,8.7,10.8,178,981.65,21.3,41,18.88,0.0,1007.41,47.9
2018-06-14 02:50,50.9117333333333,-96.9825183333333,7.6,9.7,167,981.81,20.1,54,18.85,0.0,1007.63,47.9
2018-06-14 03:00,50.91173,-96.9825233333333,7.5,9.6,164,981.84,19.3,59,18.80,0.0,1007.69,0.0
2018-06-14 03:10,50.91174,-96.9825383333333,7.7,9.7,164,981.87,19.1,60,18.73,0.0,1007.73,0.0
2018-06-14 03:20,50.911735,-96.9825366666667,7.2,9.2,162,981.89,18.8,65,18.68,0.0,1007.70,0.0
2018-06-14 03:30,50.9117383333333,-96.9825216666667,12.0,13.7,157,981.75,18.5,66,18.63,0.0,1007.51,0.0
2018-06-14 03:40,50.9117433333333,-96.9825283333333,10.4,11.9,160,981.78,18.3,69,18.58,0.0,1007.53,0.0
2018-06-14 03:50,50.9117416666667,-96.9825233333333,12.4,14.4,157,981.82,18.4,67,18.54,0.0,1007.58,0.0
2018-06-14 04:00,50.9117433333333,-96.9825166666667,11.9,13.4,155,981.83,18.2,71,18.51,0.0,1007.62,0.0
2018-06-14 04:10,50.9117616666667,-96.9825416666667,11.3,12.9,155,981.78,18.1,71,18.48,0.0,1007.59,0.0
2018-06-14 04:20,50.9117466666667,-96.9825233333333,11.6,13.6,156,981.76,18.1,70,18.45,0.0,1007.56,0.0
2018-06-14 04:30,50.9117366666667,-96.9825183333333,11.5,13.1,156,981.72,18.0,71,18.42,0.0,1007.54,0.0
2018-06-14 04:40,50.91174,-96.9825183333333,10.7,15.0,167,981.79,18.0,70,18.39,0.0,1007.65,0.0
2018-06-14 04:50,50.91174,-96.98252,13.9,17.5,172,981.76,18.5,62,18.38,0.0,1007.64,0.0
2018-06-14 05:00,50.91174,-96.9825183333333,14.9,17.3,172,981.75,18.6,62,18.41,0.0,1007.63,360.0
2018-06-14 05:10,50.91174,-96.9825166666667,14.6,17.3,173,981.77,18.4,63,18.43,0.0,1007.67,360.0
2018-06-14 05:20,50.911745,-96.9825166666667,14.0,16.1,173,981.80,18.3,64,18.44,0.0,1007.72,360.0
2018-06-14 05:30,50.911745,-96.9825783333333,13.6,15.2,173,981.78,18.2,65,18.43,0.0,1007.72,360.0
2018-06-14 05:40,50.9117416666667,-96.9825233333333,13.4,15.2,173,981.71,18.2,65,18.42,0.0,1007.64,360.0
2018-06-14 05:50,50.9117383333333,-96.9825233333333,13.4,15.6,173,981.63,18.1,65,18.41,0.0,1007.57,360.0
2018-06-14 06:00,50.9117166666667,-96.98253,12.3,14.1,174,981.63,17.9,68,18.38,0.0,1007.59,202.7
2018-06-14 06:10,50.9117266666667,-96.9825366666667,12.5,13.7,173,981.62,17.6,69,18.35,0.0,1007.59,202.7
2018-06-14 06:20,50.911725,-96.9825316666667,12.0,13.6,172,981.61,17.5,70,18.31,0.0,1007.59,202.7
2018-06-14 06:30,50.9117433333333,-96.9825283333333,11.8,13.3,175,981.74,17.5,70,18.27,0.0,1007.72,202.7
2018-06-14 06:40,50.9117483333333,-96.9825283333333,10.8,13.4,175,981.77,17.5,70,18.24,0.0,1007.73,202.7
2018-06-14 06:50,50.9117283333333,-96.9825333333333,8.4,10.4,171,981.77,17.3,72,18.21,0.0,1007.73,202.7
2018-06-14 07:00,50.9117283333333,-96.9825316666667,8.5,9.4,172,981.77,17.2,72,18.18,0.0,1007.74,227.9
2018-06-14 07:10,50.91173,-96.98253,7.9,9.3,176,981.78,17.2,72,18.15,0.0,1007.77,227.9
2018-06-14 07:20,50.9117283333333,-96.9825333333333,6.2,9.1,181,981.84,17.4,66,18.13,0.0,1007.82,227.9
2018-06-14 07:30,50.9117283333333,-96.98253,8.1,9.2,175,981.82,17.6,64,18.11,0.0,1007.78,227.9
2018-06-14 07:40,50.91173,-96.98253,7.8,11.0,180,981.79,17.6,62,18.09,0.0,1007.77,227.9
2018-06-14 07:50,50.9117183333333,-96.9825216666667,9.8,12.0,179,981.78,17.9,56,18.07,0.0,1007.75,227.9
2018-06-14 08:00,50.9117316666667,-96.982525,9.5,12.1,182,981.84,17.9,55,18.05,0.0,1007.82,360.0
2018-06-14 08:10,50.9117316666667,-96.9825266666667,9.5,11.8,182,981.89,17.7,55,18.03,0.0,1007.88,360.0
2018-06-14 08:20,50.9117333333333,-96.982525,8.3,10.6,182,981.92,17.5,57,18.00,0.0,1007.93,360.0
2018-06-14 08:30,50.9117333333333,-96.9825266666667,8.4,10.3,179,981.94,17.3,58,17.97,0.0,1007.95,360.0
2018-06-14 08:40,50.9117366666667,-96.98253,8.1,10.1,180,981.97,17.1,58,17.93,0.0,1008.01,360.0
2018-06-14 08:50,50.9117383333333,-96.98253,7.4,10.5,183,981.92,16.9,58,17.90,0.0,1007.97,360.0
2018-06-14 09:00,50.91174,-96.98253,8.1,9.9,180,981.83,16.8,59,17.86,0.0,1007.88,360.0
2018-06-14 09:10,50.91174,-96.9825316666667,7.6,10.4,183,981.85,16.7,59,17.82,0.0,1007.90,360.0
2018-06-14 09:20,50.9117383333333,-96.98253,8.2,10.9,181,981.89,16.7,58,17.79,0.0,1007.93,360.0
2018-06-14 09:30,50.9117383333333,-96.98253,7.3,9.0,172,981.93,16.6,60,17.75,0.0,1007.98,360.0
2018-06-14 09:40,50.91174,-96.98253,6.7,8.1,172,981.90,16.4,63,17.73,0.0,1007.94,360.0
2018-06-14 09:50,50.91174,-96.9825283333333,6.6,8.2,172,981.92,16.2,67,17.70,0.0,1007.97,360.0
2018-06-14 10:00,50.91174,-96.9825283333333,6.3,8.2,168,981.98,16.1,71,17.68,0.0,1008.04,360.0
2018-06-14 10:10,50.91174,-96.9825283333333,7.7,10.3,169,982.06,16.3,72,17.66,0.0,1008.13,360.0
2018-06-14 10:20,50.9117233333333,-96.9825433333333,8.0,10.5,167,982.09,16.4,71,17.65,0.0,1008.17,360.0
2018-06-14 10:30,50.9117233333333,-96.9825233333333,7.2,9.6,163,982.12,16.2,76,17.63,0.0,1008.20,360.0
2018-06-14 10:40,50.9117216666667,-96.9825233333333,7.5,9.4,161,982.16,16.1,79,17.61,0.0,1008.26,360.0
2018-06-14 10:50,50.9117266666667,-96.98253,6.9,9.1,161,982.24,16.1,79,17.59,0.0,1008.35,360.0
2018-06-14 11:00,50.9117233333333,-96.9825116666667,7.4,9.5,161,982.28,16.1,80,17.57,0.0,1008.39,119.5
2018-06-14 11:10,50.9117316666667,-96.9825166666667,7.8,10.3,162,982.31,16.1,81,17.56,0.0,1008.43,119.5
2018-06-14 11:20,50.91173,-96.9825233333333,9.7,11.5,156,982.30,16.2,80,17.54,0.0,1008.42,119.5
2018-06-14 11:30,50.911745,-96.9825183333333,10.6,13.1,157,982.33,16.3,80,17.53,0.0,1008.45,119.5
2018-06-14 11:40,50.911735,-96.982525,11.5,13.0,154,982.50,16.3,81,17.52,0.0,1008.64,119.5
2018-06-14 11:50,50.9117283333333,-96.9825216666667,9.7,12.0,149,982.55,16.2,84,17.52,0.0,1008.70,119.5
2018-06-14 12:00,50.9117316666667,-96.9825133333333,10.4,12.6,150,982.68,16.1,85,17.52,0.0,1008.83,170.2
2018-06-14 12:10,50.9117333333333,-96.982515,11.5,12.8,147,982.74,16.1,83,17.52,0.0,1008.89,170.2
2018-06-14 12:20,50.9117333333333,-96.9825116666667,11.9,14.3,145,982.71,16.0,81,17.51,0.0,1008.86,170.2
2018-06-14 12:30,50.9117333333333,-96.9825133333333,12.0,13.9,150,982.71,16.0,82,17.50,0.0,1008.87,170.2
2018-06-14 12:40,50.9117333333333,-96.982515,12.7,14.7,152,982.75,16.0,82,17.50,0.0,1008.91,170.2
2018-06-14 12:50,50.9117,-96.9825266666667,12.3,13.5,153,982.83,16.1,84,17.48,0.0,1008.99,170.2
2018-06-14 13:00,50.9117466666667,-96.9825116666667,11.2,13.7,149,982.88,16.3,85,17.47,0.0,1009.04,60.5
2018-06-14 13:10,50.9117466666667,-96.9825216666667,11.0,12.6,144,982.85,16.2,85,17.48,0.0,1009.00,60.5
2018-06-14 13:20,50.911745,-96.98252,11.8,13.3,145,982.79,16.2,85,17.48,0.0,1008.94,60.5
2018-06-14 13:30,50.9117233333333,-96.982525,12.1,13.7,149,982.82,16.1,86,17.48,0.0,1008.97,60.5
2018-06-14 13:40,50.9117283333333,-96.9825166666667,11.2,12.7,148,982.71,16.1,87,17.48,0.0,1008.86,60.5
2018-06-14 13:50,50.911735,-96.9825166666667,12.2,14.2,146,982.61,16.1,86,17.47,0.0,1008.76,60.5
2018-06-14 14:00,50.9117333333333,-96.9825183333333,11.7,13.1,145,982.61,16.0,87,17.47,0.0,1008.77,312.1
2018-06-14 14:10,50.9117366666667,-96.9825183333333,11.8,14.0,144,982.68,16.1,88,17.46,0.0,1008.84,312.1
2018-06-14 14:20,50.9117316666667,-96.9825416666667,12.5,14.2,144,982.65,16.0,88,17.45,0.0,1008.81,312.1
2018-06-14 14:30,50.9117316666667,-96.9825316666667,10.3,12.5,148,982.75,16.1,90,17.43,0.0,1008.91,312.1
2018-06-14 14:40,50.9117316666667,-96.9825283333333,10.6,12.5,147,982.82,16.2,91,17.43,0.0,1008.98,312.1
2018-06-14 14:50,50.9117316666667,-96.9825266666667,9.8,11.4,146,982.81,16.4,89,17.43,0.0,1008.95,312.1
2018-06-14 15:00,50.9117316666667,-96.9825266666667,10.4,12.2,144,982.81,16.7,86,17.44,0.0,1008.94,270.0
2018-06-14 15:10,50.911725,-96.9825166666667,11.2,13.4,143,982.73,16.8,84,17.45,0.0,1008.85,270.0
2018-06-14 15:20,50.9117316666667,-96.9825266666667,11.2,12.6,145,982.60,16.9,84,17.46,0.0,1008.72,270.0
2018-06-14 15:30,50.91173,-96.9825266666667,12.2,14.0,144,982.43,17.2,80,17.48,0.0,1008.53,270.0
2018-06-14 15:40,50.91173,-96.982525,13.3,15.3,142,982.37,17.5,78,17.50,0.0,1008.45,270.0
2018-06-14 15:50,50.9117316666667,-96.982525,13.4,14.8,140,982.35,17.6,78,17.52,0.0,1008.44,270.0
2018-06-14 16:00,50.9117316666667,-96.9825233333333,12.0,13.6,139,982.40,17.6,78,17.55,0.0,1008.48,360.0
2018-06-14 16:10,50.9117633333333,-96.9824883333333,12.6,14.6,138,982.35,17.7,78,17.57,0.0,1008.43,360.0
2018-06-14 16:20,50.911745,-96.9825166666667,12.7,14.8,141,982.34,17.8,78,17.60,0.0,1008.41,360.0
2018-06-14 16:30,50.9117066666667,-96.98251,14.2,15.9,139,982.12,17.9,78,17.63,0.0,1008.18,360.0
2018-06-14 16:40,50.911725,-96.98252,14.5,16.1,138,981.99,17.9,79,17.66,0.0,1008.04,360.0
2018-06-14 16:50,50.9117216666667,-96.9825183333333,14.2,16.0,137,981.90,17.9,79,17.69,0.0,1007.92,360.0
2018-06-14 17:00,50.911735,-96.9825166666667,14.1,16.3,136,981.70,17.8,80,17.74,0.0,1007.72,9.8
2018-06-14 17:10,50.9117316666667,-96.9825183333333,13.7,15.6,135,981.58,18.0,77,17.78,0.0,1007.59,9.8
2018-06-14 17:20,50.9117233333333,-96.9825233333333,13.8,16.0,136,981.57,18.2,76,17.81,0.0,1007.55,9.8
2018-06-14 17:30,50.9117233333333,-96.9825233333333,12.6,14.9,143,981.49,18.5,74,17.85,0.0,1007.44,9.8
2018-06-14 17:40,50.9117216666667,-96.9825216666667,12.2,14.0,149,981.42,18.9,72,17.92,0.0,1007.35,9.8
2018-06-14 17:50,50.9117233333333,-96.982525,11.1,12.4,150,981.51,18.7,74,18.01,0.0,1007.44,9.8
2018-06-14 18:00,50.9117233333333,-96.9825216666667,8.9,11.6,146,981.48,18.9,74,18.07,0.0,1007.41,132.1
2018-06-14 18:10,50.911725,-96.982525,8.0,9.9,138,981.33,18.9,73,18.10,0.0,1007.25,132.1
2018-06-14 18:20,50.911725,-96.9825266666667,6.0,7.5,135,981.32,18.9,74,18.11,0.0,1007.24,132.1
2018-06-14 18:30,50.9117266666667,-96.982525,4.8,6.4,159,981.24,19.5,70,18.12,0.0,1007.12,132.1
2018-06-14 18:40,50.911725,-96.982525,6.9,8.6,131,980.99,19.5,69,18.13,0.0,1006.87,132.1
2018-06-14 18:50,50.9117266666667,-96.982525,6.9,8.3,140,980.86,19.4,68,18.17,0.0,1006.74,132.1
2018-06-14 19:00,50.9117283333333,-96.982525,8.1,9.4,151,980.89,20.0,63,18.20,0.0,1006.74,270.0
2018-06-14 19:10,50.9117283333333,-96.9825266666667,7.0,9.9,104,980.79,20.4,71,18.24,0.0,1006.60,270.0
2018-06-14 19:20,50.91173,-96.9825266666667,6.8,8.9,108,980.80,20.4,69,18.28,0.0,1006.61,270.0
2018-06-14 19:30,50.911705,-96.9825283333333,5.7,7.9,115,980.82,19.9,71,18.31,0.0,1006.63,270.0
2018-06-14 19:40,50.91174,-96.9825233333333,5.0,6.5,102,980.93,20.2,71,18.32,0.0,1006.74,270.0
2018-06-14 19:50,50.911735,-96.9825266666667,4.7,6.5,98,981.15,20.3,71,18.33,0.0,1006.95,270.0
2018-06-14 20:00,50.91174,-96.9825616666667,3.4,4.9,96,981.47,20.4,72,18.32,0.0,1007.27,280.3
2018-06-14 20:10,50.9117266666667,-96.9825116666667,2.6,4.1,110,981.58,20.5,67,18.30,0.0,1007.39,280.3
2018-06-14 20:20,50.91173,-96.982525,3.7,5.3,120,981.56,20.3,61,18.28,0.0,1007.35,280.3
2018-06-14 20:30,50.911735,-96.9825266666667,4.7,6.2,135,981.47,20.1,61,18.25,0.0,1007.26,280.3
2018-06-14 20:40,50.911735,-96.9825266666667,6.6,8.3,147,981.49,19.9,63,18.24,0.0,1007.30,280.3
2018-06-14 20:50,50.9117066666667,-96.9825233333333,10.2,11.8,146,981.38,19.7,65,18.25,0.0,1007.17,280.3
2018-06-14 21:00,50.9117266666667,-96.9825416666667,11.8,13.7,139,981.13,20.0,62,18.25,0.0,1006.87,288.0
2018-06-14 21:10,50.9117516666667,-96.9825566666667,11.6,12.4,133,980.90,20.7,57,18.25,0.0,1006.61,288.0
2018-06-14 21:20,50.9117383333333,-96.9825033333333,9.7,11.5,126,980.90,20.3,65,18.25,0.0,1006.65,288.0
2018-06-14 21:30,50.9117416666667,-96.98253,9.9,10.9,132,980.86,19.9,69,18.25,0.0,1006.61,288.0
2018-06-14 21:40,50.91174,-96.98253,10.6,11.7,130,980.95,20.1,66,18.25,0.0,1006.69,288.0
2018-06-14 21:50,50.9117383333333,-96.982525,11.6,12.7,123,980.84,20.1,68,18.25,0.0,1006.57,288.0
2018-06-14 22:00,50.91174,-96.9825283333333,12.1,13.4,121,980.72,20.0,69,18.25,0.0,1006.46,360.0
2018-06-14 22:10,50.91173,-96.9824933333333,10.9,12.9,123,980.61,19.9,70,18.26,0.0,1006.36,360.0
2018-06-14 22:20,50.9117233333333,-96.9825033333333,8.7,10.0,124,980.53,19.8,71,18.26,0.0,1006.28,360.0
2018-06-14 22:30,50.911725,-96.9825216666667,7.1,8.8,120,980.32,20.2,70,18.26,0.0,1006.06,360.0
2018-06-14 22:40,50.9116916666667,-96.9825266666667,9.3,13.5,105,979.92,20.7,71,18.26,0.0,1005.63,360.0
2018-06-14 22:50,50.91173,-96.9825316666667,14.6,16.1,108,979.44,21.2,66,18.26,0.0,1005.11,360.0
2018-06-14 23:00,50.9117316666667,-96.982525,13.8,15.1,100,979.15,21.1,67,18.27,0.0,1004.78,118.7
2018-06-14 23:10,50.9117316666667,-96.9825283333333,13.4,15.0,95,978.86,20.9,68,18.28,0.0,1004.52,118.7
2018-06-14 23:20,50.911735,-96.98253,13.5,15.8,91,978.56,21.0,67,18.29,0.0,1004.22,118.7
2018-06-14 23:30,50.911735,-96.98253,12.4,14.5,87,978.44,21.0,67,18.30,0.0,1004.09,118.7
2018-06-14 23:40,50.9117216666667,-96.98251,11.2,12.9,87,978.44,21.0,68,18.30,0.0,1004.09,118.7
2018-06-14 23:50,50.91172,-96.9825233333333,11.2,12.8,91,978.48,20.8,68,18.30,0.0,1004.14,118.7
